����������;��������(kVARh)
2018-10-08 00:00;0,75
2018-10-08 00:15;1,5
2018-10-08 00:30;1,6
2018-10-08 00:45;2,05
2018-10-08 01:00;2,25
2018-10-08 01:15;2,65
2018-10-08 01:30;7,1
2018-10-08 01:45;8,1
2018-10-08 02:00;7,55
2018-10-08 02:15;8,8
2018-10-08 02:30;7,65
2018-10-08 02:45;8,5
2018-10-08 03:00;9,95
2018-10-08 03:15;8,95
2018-10-08 03:30;8,45
2018-10-08 03:45;6,75
2018-10-08 04:00;6,2
2018-10-08 04:15;5,45
2018-10-08 04:30;6,5
2018-10-08 04:45;5,9
2018-10-08 05:00;6,2
2018-10-08 05:15;6,9
2018-10-08 05:30;5,45
2018-10-08 05:45;5,55
2018-10-08 06:00;4,85
2018-10-08 06:15;3,65
2018-10-08 06:30;3,5
2018-10-08 06:45;3,35
2018-10-08 07:00;3,1
2018-10-08 07:15;2,5
2018-10-08 07:30;32,95
2018-10-08 07:45;20,9
2018-10-08 08:00;9,3
2018-10-08 08:15;8,1
2018-10-08 08:30;11,55
2018-10-08 08:45;6,35
2018-10-08 09:00;14,1
2018-10-08 09:15;10,8
2018-10-08 09:30;13,8
2018-10-08 09:45;18
2018-10-08 10:00;22,75
2018-10-08 10:15;32,1
2018-10-08 10:30;28,8
2018-10-08 10:45;27,1
2018-10-08 11:00;26,6
2018-10-08 11:15;28,1
2018-10-08 11:30;25,55
2018-10-08 11:45;31,45
2018-10-08 12:00;32,5
2018-10-08 12:15;37,3
2018-10-08 12:30;35,4
2018-10-08 12:45;34,3
2018-10-08 13:00;33,6
2018-10-08 13:15;32,95
2018-10-08 13:30;32,85
2018-10-08 13:45;32,9
2018-10-08 14:00;34
2018-10-08 14:15;32,4
2018-10-08 14:30;33,9
2018-10-08 14:45;28,55
2018-10-08 15:00;37,65
2018-10-08 15:15;28,5
2018-10-08 15:30;26,4
2018-10-08 15:45;26,65
2018-10-08 16:00;27
2018-10-08 16:15;23,1
2018-10-08 16:30;21,65
2018-10-08 16:45;21,1
2018-10-08 17:00;20,55
2018-10-08 17:15;19,4
2018-10-08 17:30;19,3
2018-10-08 17:45;20,6
2018-10-08 18:00;19,75
2018-10-08 18:15;12,5
2018-10-08 18:30;14,2
2018-10-08 18:45;14
2018-10-08 19:00;9,6
2018-10-08 19:15;8,7
2018-10-08 19:30;4,55
2018-10-08 19:45;6,15
2018-10-08 20:00;6,3
2018-10-08 20:15;9,25
2018-10-08 20:30;9,1
2018-10-08 20:45;10,05
2018-10-08 21:00;9,55
2018-10-08 21:15;12,05
2018-10-08 21:30;10,5
2018-10-08 21:45;5,8
2018-10-08 22:00;6,7
2018-10-08 22:15;9
2018-10-08 22:30;6,4
2018-10-08 22:45;4,6
2018-10-08 23:00;5,9
2018-10-08 23:15;6,35
2018-10-08 23:30;8,25
2018-10-08 23:45;8,3
2018-10-09 00:00;5
2018-10-09 00:15;2,2
2018-10-09 00:30;0,15
2018-10-09 00:45;0,05
2018-10-09 01:00;0,7
2018-10-09 01:15;0,4
2018-10-09 01:30;0,5
2018-10-09 01:45;0,1
2018-10-09 02:00;0
2018-10-09 02:15;0
2018-10-09 02:30;0
2018-10-09 02:45;0,1
2018-10-09 03:00;0
2018-10-09 03:15;0,05
2018-10-09 03:30;0
2018-10-09 03:45;0,2
2018-10-09 04:00;0,05
2018-10-09 04:15;0
2018-10-09 04:30;0,15
2018-10-09 04:45;0
2018-10-09 05:00;0,25
2018-10-09 05:15;0
2018-10-09 05:30;0,2
2018-10-09 05:45;0
2018-10-09 06:00;0,2
2018-10-09 06:15;0
2018-10-09 06:30;0,05
2018-10-09 06:45;0
2018-10-09 07:00;0
2018-10-09 07:15;0
2018-10-09 07:30;18,45
2018-10-09 07:45;2,45
2018-10-09 08:00;4,75
2018-10-09 08:15;9,1
2018-10-09 08:30;7,55
2018-10-09 08:45;8,8
2018-10-09 09:00;14,15
2018-10-09 09:15;8,85
2018-10-09 09:30;8,3
2018-10-09 09:45;20,25
2018-10-09 10:00;19,05
2018-10-09 10:15;25,45
2018-10-09 10:30;22,7
2018-10-09 10:45;23,5
2018-10-09 11:00;25,7
2018-10-09 11:15;28,2
2018-10-09 11:30;25,6
2018-10-09 11:45;24,1
2018-10-09 12:00;25
2018-10-09 12:15;30,15
2018-10-09 12:30;35,5
2018-10-09 12:45;31,7
2018-10-09 13:00;38,2
2018-10-09 13:15;33,55
2018-10-09 13:30;39,7
2018-10-09 13:45;34,15
2018-10-09 14:00;41,95
2018-10-09 14:15;36,2
2018-10-09 14:30;32,8
2018-10-09 14:45;40,5
2018-10-09 15:00;34
2018-10-09 15:15;38,5
2018-10-09 15:30;33,55
2018-10-09 15:45;36,55
2018-10-09 16:00;36,25
2018-10-09 16:15;30,9
2018-10-09 16:30;37,85
2018-10-09 16:45;30,7
2018-10-09 17:00;32,05
2018-10-09 17:15;26,35
2018-10-09 17:30;24,3
2018-10-09 17:45;22
2018-10-09 18:00;20
2018-10-09 18:15;17,6
2018-10-09 18:30;12,4
2018-10-09 18:45;4,95
2018-10-09 19:00;5,85
2018-10-09 19:15;2,65
2018-10-09 19:30;1
2018-10-09 19:45;0,75
2018-10-09 20:00;2,95
2018-10-09 20:15;5,45
2018-10-09 20:30;8,95
2018-10-09 20:45;9,05
2018-10-09 21:00;9,35
2018-10-09 21:15;10,65
2018-10-09 21:30;12,5
2018-10-09 21:45;12,55
2018-10-09 22:00;9,75
2018-10-09 22:15;4,55
2018-10-09 22:30;3,15
2018-10-09 22:45;5,5
2018-10-09 23:00;6,25
2018-10-09 23:15;7,9
2018-10-09 23:30;7,65
2018-10-09 23:45;0,75
2018-10-10 00:00;0,25
2018-10-10 00:15;2,35
2018-10-10 00:30;3,6
2018-10-10 00:45;4,05
2018-10-10 01:00;4,2
2018-10-10 01:15;2,7
2018-10-10 01:30;1,45
2018-10-10 01:45;3,3
2018-10-10 02:00;3,25
2018-10-10 02:15;1,7
2018-10-10 02:30;0,8
2018-10-10 02:45;0,3
2018-10-10 03:00;0,7
2018-10-10 03:15;0,65
2018-10-10 03:30;1,45
2018-10-10 03:45;1
2018-10-10 04:00;1,4
2018-10-10 04:15;1,5
2018-10-10 04:30;1,9
2018-10-10 04:45;0,7
2018-10-10 05:00;1,9
2018-10-10 05:15;1,35
2018-10-10 05:30;1,6
2018-10-10 05:45;1,85
2018-10-10 06:00;1,15
2018-10-10 06:15;0,25
2018-10-10 06:30;1,3
2018-10-10 06:45;1,55
2018-10-10 07:00;1,25
2018-10-10 07:15;0,55
2018-10-10 07:30;25,35
2018-10-10 07:45;16,5
2018-10-10 08:00;11,5
2018-10-10 08:15;11,3
2018-10-10 08:30;7,2
2018-10-10 08:45;19,2
2018-10-10 09:00;13,7
2018-10-10 09:15;16,8
2018-10-10 09:30;21,3
2018-10-10 09:45;22
2018-10-10 10:00;21,5
2018-10-10 10:15;24,7
2018-10-10 10:30;23,7
2018-10-10 10:45;30,9
2018-10-10 11:00;31,2
2018-10-10 11:15;44,35
2018-10-10 11:30;35,15
2018-10-10 11:45;34,05
2018-10-10 12:00;37,8
2018-10-10 12:15;36,25
2018-10-10 12:30;38,05
2018-10-10 12:45;37,55
2018-10-10 13:00;37,25
2018-10-10 13:15;37,05
2018-10-10 13:30;35,45
2018-10-10 13:45;36,8
2018-10-10 14:00;35,25
2018-10-10 14:15;41,6
2018-10-10 14:30;31,85
2018-10-10 14:45;39,95
2018-10-10 15:00;28,8
2018-10-10 15:15;33,65
2018-10-10 15:30;29,3
2018-10-10 15:45;33,65
2018-10-10 16:00;33,85
2018-10-10 16:15;30,5
2018-10-10 16:30;24,25
2018-10-10 16:45;29,3
2018-10-10 17:00;23,7
2018-10-10 17:15;21,2
2018-10-10 17:30;27,2
2018-10-10 17:45;22,55
2018-10-10 18:00;25,6
2018-10-10 18:15;17,95
2018-10-10 18:30;12,55
2018-10-10 18:45;16,1
2018-10-10 19:00;14,3
2018-10-10 19:15;11,65
2018-10-10 19:30;8,8
2018-10-10 19:45;9,9
2018-10-10 20:00;9,35
2018-10-10 20:15;5,85
2018-10-10 20:30;6,9
2018-10-10 20:45;5,7
2018-10-10 21:00;6,55
2018-10-10 21:15;7,95
2018-10-10 21:30;6,9
2018-10-10 21:45;3,5
2018-10-10 22:00;2,05
2018-10-10 22:15;4,6
2018-10-10 22:30;5,35
2018-10-10 22:45;2,8
2018-10-10 23:00;1,35
2018-10-10 23:15;2,55
2018-10-10 23:30;2,2
2018-10-10 23:45;0,25
2018-10-11 00:00;0
2018-10-11 00:15;0
2018-10-11 00:30;0
2018-10-11 00:45;0
2018-10-11 01:00;0
2018-10-11 01:15;0
2018-10-11 01:30;0
2018-10-11 01:45;0
2018-10-11 02:00;0
2018-10-11 02:15;0
2018-10-11 02:30;0
2018-10-11 02:45;0
2018-10-11 03:00;0
2018-10-11 03:15;0
2018-10-11 03:30;0
2018-10-11 03:45;0
2018-10-11 04:00;0
2018-10-11 04:15;0
2018-10-11 04:30;0
2018-10-11 04:45;0
2018-10-11 05:00;0
2018-10-11 05:15;0
2018-10-11 05:30;0
2018-10-11 05:45;0
2018-10-11 06:00;0
2018-10-11 06:15;0
2018-10-11 06:30;0,3
2018-10-11 06:45;0
2018-10-11 07:00;0,3
2018-10-11 07:15;0
2018-10-11 07:30;20,55
2018-10-11 07:45;8,2
2018-10-11 08:00;7,9
2018-10-11 08:15;7,25
2018-10-11 08:30;8,75
2018-10-11 08:45;14,9
2018-10-11 09:00;12,7
2018-10-11 09:15;12,6
2018-10-11 09:30;15,45
2018-10-11 09:45;17,65
2018-10-11 10:00;24,9
2018-10-11 10:15;20,95
2018-10-11 10:30;25,95
2018-10-11 10:45;37,5
2018-10-11 11:00;30,05
2018-10-11 11:15;28,75
2018-10-11 11:30;35,4
2018-10-11 11:45;33,45
2018-10-11 12:00;38,05
2018-10-11 12:15;31,8
2018-10-11 12:30;31,9
2018-10-11 12:45;31,65
2018-10-11 13:00;31,3
2018-10-11 13:15;30,65
2018-10-11 13:30;35,4
2018-10-11 13:45;34,5
2018-10-11 14:00;33,25
2018-10-11 14:15;31,2
2018-10-11 14:30;33,1
2018-10-11 14:45;33,05
2018-10-11 15:00;30,55
2018-10-11 15:15;36
2018-10-11 15:30;27,25
2018-10-11 15:45;29,15
2018-10-11 16:00;34,65
2018-10-11 16:15;29,25
2018-10-11 16:30;32,25
2018-10-11 16:45;29,35
2018-10-11 17:00;23,95
2018-10-11 17:15;31,55
2018-10-11 17:30;25,75
2018-10-11 17:45;30
2018-10-11 18:00;20,15
2018-10-11 18:15;18,85
2018-10-11 18:30;20,55
2018-10-11 18:45;16,3
2018-10-11 19:00;21,45
2018-10-11 19:15;10,4
2018-10-11 19:30;6,1
2018-10-11 19:45;6,15
2018-10-11 20:00;7,15
2018-10-11 20:15;3,6
2018-10-11 20:30;4,7
2018-10-11 20:45;3,5
2018-10-11 21:00;4,8
2018-10-11 21:15;6,7
2018-10-11 21:30;5,85
2018-10-11 21:45;6,9
2018-10-11 22:00;4,7
2018-10-11 22:15;3,45
2018-10-11 22:30;4,2
2018-10-11 22:45;5,05
2018-10-11 23:00;6,65
2018-10-11 23:15;6,8
2018-10-11 23:30;0
2018-10-11 23:45;0
2018-10-12 00:00;0
2018-10-12 00:15;0
2018-10-12 00:30;0
2018-10-12 00:45;0,05
2018-10-12 01:00;0
2018-10-12 01:15;0
2018-10-12 01:30;0
2018-10-12 01:45;0,05
2018-10-12 02:00;0
2018-10-12 02:15;0
2018-10-12 02:30;0
2018-10-12 02:45;0
2018-10-12 03:00;0
2018-10-12 03:15;0
2018-10-12 03:30;0,05
2018-10-12 03:45;0
2018-10-12 04:00;0
2018-10-12 04:15;0
2018-10-12 04:30;0
2018-10-12 04:45;0,1
2018-10-12 05:00;0
2018-10-12 05:15;0
2018-10-12 05:30;0
2018-10-12 05:45;0
2018-10-12 06:00;0
2018-10-12 06:15;0
2018-10-12 06:30;0
2018-10-12 06:45;0
2018-10-12 07:00;0,05
2018-10-12 07:15;0,8
2018-10-12 07:30;33,8
2018-10-12 07:45;13,9
2018-10-12 08:00;11,4
2018-10-12 08:15;12,15
2018-10-12 08:30;13,9
2018-10-12 08:45;7,9
2018-10-12 09:00;11,5
2018-10-12 09:15;12,35
2018-10-12 09:30;13,25
2018-10-12 09:45;14,75
2018-10-12 10:00;20,9
2018-10-12 10:15;20,7
2018-10-12 10:30;22,5
2018-10-12 10:45;28,45
2018-10-12 11:00;28,95
2018-10-12 11:15;31,95
2018-10-12 11:30;24,55
2018-10-12 11:45;20,1
2018-10-12 12:00;21,25
2018-10-12 12:15;23,35
2018-10-12 12:30;24
2018-10-12 12:45;22,3
2018-10-12 13:00;22,2
2018-10-12 13:15;22,4
2018-10-12 13:30;23,5
2018-10-12 13:45;23,65
2018-10-12 14:00;22,65
2018-10-12 14:15;22,45
2018-10-12 14:30;22,8
2018-10-12 14:45;23,9
2018-10-12 15:00;24,75
2018-10-12 15:15;21,85
2018-10-12 15:30;25,9
2018-10-12 15:45;28,3
2018-10-12 16:00;26,1
2018-10-12 16:15;27,55
2018-10-12 16:30;24,6
2018-10-12 16:45;24,35
2018-10-12 17:00;23
2018-10-12 17:15;21,25
2018-10-12 17:30;18,8
2018-10-12 17:45;17,95
2018-10-12 18:00;17,55
2018-10-12 18:15;15,3
2018-10-12 18:30;15,45
2018-10-12 18:45;15,5
2018-10-12 19:00;14,55
2018-10-12 19:15;11,8
2018-10-12 19:30;11,9
2018-10-12 19:45;13,5
2018-10-12 20:00;13,3
2018-10-12 20:15;11
2018-10-12 20:30;9,9
2018-10-12 20:45;11,9
2018-10-12 21:00;12,9
2018-10-12 21:15;10,9
2018-10-12 21:30;12,35
2018-10-12 21:45;10,4
2018-10-12 22:00;10,7
2018-10-12 22:15;7,95
2018-10-12 22:30;8,9
2018-10-12 22:45;6,3
2018-10-12 23:00;1,2
2018-10-12 23:15;0,35
2018-10-12 23:30;0,05
2018-10-12 23:45;0,95
2018-10-13 00:00;0,65
2018-10-13 00:15;0,15
2018-10-13 00:30;0
2018-10-13 00:45;0
2018-10-13 01:00;0,25
2018-10-13 01:15;0
2018-10-13 01:30;0,1
2018-10-13 01:45;0
2018-10-13 02:00;0
2018-10-13 02:15;0
2018-10-13 02:30;0,05
2018-10-13 02:45;0
2018-10-13 03:00;0
2018-10-13 03:15;0
2018-10-13 03:30;0
2018-10-13 03:45;0
2018-10-13 04:00;0
2018-10-13 04:15;0
2018-10-13 04:30;0
2018-10-13 04:45;0,35
2018-10-13 05:00;0,9
2018-10-13 05:15;0,6
2018-10-13 05:30;1
2018-10-13 05:45;0,4
2018-10-13 06:00;1,15
2018-10-13 06:15;0,05
2018-10-13 06:30;0,05
2018-10-13 06:45;0
2018-10-13 07:00;0
2018-10-13 07:15;0
2018-10-13 07:30;0
2018-10-13 07:45;0,3
2018-10-13 08:00;0,2
2018-10-13 08:15;0
2018-10-13 08:30;2
2018-10-13 08:45;4,35
2018-10-13 09:00;3,9
2018-10-13 09:15;2,1
2018-10-13 09:30;2,5
2018-10-13 09:45;4,3
2018-10-13 10:00;4,75
2018-10-13 10:15;3,35
2018-10-13 10:30;2,45
2018-10-13 10:45;4,4
2018-10-13 11:00;4,15
2018-10-13 11:15;7,4
2018-10-13 11:30;7,05
2018-10-13 11:45;7,3
2018-10-13 12:00;8,75
2018-10-13 12:15;14,85
2018-10-13 12:30;15,65
2018-10-13 12:45;12,8
2018-10-13 13:00;12,15
2018-10-13 13:15;11,85
2018-10-13 13:30;12,9
2018-10-13 13:45;12,1
2018-10-13 14:00;12,4
2018-10-13 14:15;11,95
2018-10-13 14:30;12,4
2018-10-13 14:45;13,45
2018-10-13 15:00;14,6
2018-10-13 15:15;15,1
2018-10-13 15:30;15,45
2018-10-13 15:45;17,6
2018-10-13 16:00;16,05
2018-10-13 16:15;17,45
2018-10-13 16:30;17,15
2018-10-13 16:45;18,3
2018-10-13 17:00;17,35
2018-10-13 17:15;17,05
2018-10-13 17:30;16,1
2018-10-13 17:45;15,7
2018-10-13 18:00;20,85
2018-10-13 18:15;20,6
2018-10-13 18:30;16,15
2018-10-13 18:45;11,1
2018-10-13 19:00;10,95
2018-10-13 19:15;9,15
2018-10-13 19:30;6,15
2018-10-13 19:45;7,15
2018-10-13 20:00;5
2018-10-13 20:15;5,1
2018-10-13 20:30;6,8
2018-10-13 20:45;7,45
2018-10-13 21:00;7,05
2018-10-13 21:15;7,85
2018-10-13 21:30;7,75
2018-10-13 21:45;6,2
2018-10-13 22:00;6,3
2018-10-13 22:15;2,3
2018-10-13 22:30;3,15
2018-10-13 22:45;1,55
2018-10-13 23:00;2,75
2018-10-13 23:15;3,65
2018-10-13 23:30;1,7
2018-10-13 23:45;0,1
2018-10-14 00:00;0,05
2018-10-14 00:15;0
2018-10-14 00:30;0
2018-10-14 00:45;0
2018-10-14 01:00;0
2018-10-14 01:15;0
2018-10-14 01:30;0
2018-10-14 01:45;0
2018-10-14 02:00;0
2018-10-14 02:15;0
2018-10-14 02:30;0,05
2018-10-14 02:45;0,35
2018-10-14 03:00;0,05
2018-10-14 03:15;0,4
2018-10-14 03:30;0,9
2018-10-14 03:45;0,65
2018-10-14 04:00;0
2018-10-14 04:15;1,05
2018-10-14 04:30;2,4
2018-10-14 04:45;1,85
2018-10-14 05:00;2,15
2018-10-14 05:15;2
2018-10-14 05:30;2,45
2018-10-14 05:45;2,95
2018-10-14 06:00;3,4
2018-10-14 06:15;0,75
2018-10-14 06:30;2,55
2018-10-14 06:45;3,15
2018-10-14 07:00;4,05
2018-10-14 07:15;3,8
2018-10-14 07:30;3,55
2018-10-14 07:45;5,15
2018-10-14 08:00;3
2018-10-14 08:15;0,9
2018-10-14 08:30;0,3
2018-10-14 08:45;0,35
2018-10-14 09:00;3,2
2018-10-14 09:15;2,45
2018-10-14 09:30;2
2018-10-14 09:45;2,2
2018-10-14 10:00;0,9
2018-10-14 10:15;0,2
2018-10-14 10:30;1,2
2018-10-14 10:45;0
2018-10-14 11:00;0
2018-10-14 11:15;0
2018-10-14 11:30;1,5
2018-10-14 11:45;3,2
2018-10-14 12:00;2,25
2018-10-14 12:15;3,15
2018-10-14 12:30;2,3
2018-10-14 12:45;3,35
2018-10-14 13:00;3,95
2018-10-14 13:15;4,95
2018-10-14 13:30;4,85
2018-10-14 13:45;5,9
2018-10-14 14:00;4,4
2018-10-14 14:15;3,25
2018-10-14 14:30;3,4
2018-10-14 14:45;4,4
2018-10-14 15:00;6,25
2018-10-14 15:15;4,8
2018-10-14 15:30;6
2018-10-14 15:45;7,4
2018-10-14 16:00;8,2
2018-10-14 16:15;7,85
2018-10-14 16:30;9,15
2018-10-14 16:45;10,6
2018-10-14 17:00;9,4
2018-10-14 17:15;8,5
2018-10-14 17:30;12,8
2018-10-14 17:45;13,2
2018-10-14 18:00;14,05
2018-10-14 18:15;14,25
2018-10-14 18:30;14,95
2018-10-14 18:45;15,55
2018-10-14 19:00;13,45
2018-10-14 19:15;8,8
2018-10-14 19:30;8,25
2018-10-14 19:45;8,15
2018-10-14 20:00;7,2
2018-10-14 20:15;7,5
2018-10-14 20:30;8,5
2018-10-14 20:45;8,3
2018-10-14 21:00;7,45
2018-10-14 21:15;8,5
2018-10-14 21:30;7,9
2018-10-14 21:45;3,3
2018-10-14 22:00;2,25
2018-10-14 22:15;0,85
2018-10-14 22:30;0,05
2018-10-14 22:45;0
2018-10-14 23:00;0
2018-10-14 23:15;0
2018-10-14 23:30;0
2018-10-14 23:45;0,05

